Regional Weather Roundup
Issued by NWS

Home | Current Version | Previous Version | Text Only | Print | Product List | Glossary Off
Versions: 1 2 3 4 5 6 7 8 9 10 11 12 13 14 15 16 17 18 19 20 21 22 23 24 25 26 27 28 29 30 31 32 33 34 35 36 37 38 39 40 41 42 43 44 45 46 47 48 49 50

000
ASUS43 KMPX 290501
RWRMN
WEATHER ROUNDUP FOR MINNESOTA
NATIONAL WEATHER SERVICE TWIN CITIES/CHANHASSEN MN
1200 AM CDT FRI AUG 29 2014


NOTE: "FAIR" INDICATES FEW OR NO CLOUDS BELOW 12,000 FEET WITH NO
SIGNIFICANT WEATHER AND/OR OBSTRUCTIONS TO VISIBILITY. N/A MEANS
CURRENT SKY AND/OR WEATHER CONDITIONS ARE NOT AVAILABLE.

MNZ060>063-068>070-290600-
   Twin Cities Metro

CITY           SKY/WX    TMP DP  RH WIND       PRES   REMARKS
TWIN CITIES    CLOUDY    67  64  90 SE13      29.90F
ST PAUL        LGT RAIN  67  64  90 SE10      29.91F
CRYSTAL        CLOUDY    68  63  84 SE10      29.88F
BLAINE         CLOUDY    70  66  88 SE10      29.90F
LAKEVILLE      RAIN      64  63  94 SE7       29.90F
EDEN PRAIRIE   CLOUDY    68  64  87 SE14      29.88F
SOUTH ST PAUL  CLOUDY    67  64  90 SE8       29.90F
LAKE ELMO      CLOUDY    66  64  94 SE10      29.92F
$$
MNZ001>005-007-008-013>017-022>024-027-028-290600-
   Northwest Minnesota

CITY           SKY/WX    TMP DP  RH WIND       PRES   REMARKS
BEMIDJI        CLOUDY    64  61  91 S8        29.90S
HALLOCK        CLOUDY    68  64  88 S15       29.81F
ROSEAU         MOCLDY    68  63  83 S8        29.85F
WARROAD        CLOUDY    66  64  94 S8        29.86F
THIEF RVR FALL CLOUDY    64  61  88 S5        29.87S
CROOKSTON      CLOUDY    66  63  88 SW3       29.86F
FOSSTON        CLOUDY    63  59  88 SE9       29.88F
DETROIT LAKES  DRIZZLE   64  63  94 SE7       29.89F
MOORHEAD       LGT RAIN  66  66 100 CALM      29.86F
PARK RAPIDS    CLOUDY    64  63  96 SE8       29.90F
MAHNOMEN       MOCLDY    64  62  91 SE8       29.86F
$$
MNZ006-009>011-018-025>026-290600-
   North Central Minnesota

CITY           SKY/WX    TMP DP  RH WIND       PRES   REMARKS
BAUDETTE       CLOUDY    66  61  84 S6        29.88F
FLAG ISLAND    CLOUDY    68  64  88 S10       29.83F
INTL FALLS     CLOUDY    63  61  93 CALM      29.90F
WASKISH        CLOUDY    64  61  88 CALM      29.89S
BIG FORK       LGT RAIN  64  61  88 S6        29.93S
LONGVILLE      CLOUDY    63  61  94 CALM      29.92S
GRAND RAPIDS   CLOUDY    61  57  88 SE7       29.94S
CRANE LAKE     CLOUDY    63  55  77 CALM      29.94S
ORR            CLOUDY    63  54  72 S5        29.91S
COOK           CLOUDY    61  55  82 CALM      29.95S
WALKER         CLOUDY    63  62  96 CALM      29.91F
$$
MNZ012-019>021-037-290600-
   Northeast Minnesota

CITY           SKY/WX    TMP DP  RH WIND       PRES   REMARKS
DULUTH         CLOUDY    60  55  83 E7        29.96F
ELY            CLOUDY    61  50  67 S6        29.96S
HIBBING        CLOUDY    60  54  80 SE6       29.95F
EVELETH        CLOUDY    59  54  82 CALM      29.97S
DULUTH HARBOR  CLOUDY    63  61  94 NE9       29.96F
TWO HARBORS    CLOUDY    57  52  82 CALM      29.95F
SILVER BAY     CLOUDY    55  55 100 CALM      29.96S
GRAND MARAIS     N/A     59  53  80 CALM      29.97F
G MARAIS ARPRT CLOUDY    55  46  71 E3        30.00F
$$
MNZ029>031-032-039>041-046>048-054>057-064-290600-
   West Central Minnesota

CITY           SKY/WX    TMP DP  RH WIND       PRES   REMARKS
FERGUS FALLS   CLOUDY    64  64 100 SE6       29.86F FOG
WHEATON        CLOUDY    63  63 100 E5        29.86F
MORRIS         CLOUDY    66  66 100 SE14G20   29.85F FOG
ALEXANDRIA     CLOUDY    65  64  97 SE10      29.89F FOG
ELBOW LAKE     CLOUDY    64  64  98 SE8       29.86F
WADENA         DRIZZLE   63  63 100 SE7       29.89F
GLENWOOD       CLOUDY    64  64 100 SE10      29.89F FOG
APPLETON       CLOUDY    68  64  88 SE9       29.84F
BENSON         CLOUDY    66  64  94 S7        29.86F
ORTONVILLE     FOG       66  64  94 SE7       29.84F VSB 3/4
MADISON        CLOUDY    70  68  94 SE7       29.84F FOG
WILLMAR        CLOUDY    66  64  94 E9        29.88F
$$
MNZ033>034-036-042>043-049>051-058-059-290600-
   Central Minnesota

CITY           SKY/WX    TMP DP  RH WIND       PRES   REMARKS
ST CLOUD       CLOUDY    68  64  87 E6        29.89F
SAUK CENTRE    CLOUDY    64  64  97 SE9       29.89F FOG
PAYNESVILLE    HVY RAIN  63  62  96 E8        29.89F
AITKIN         CLOUDY    66  61  82 SE8       29.92S
PINE RIVER     CLOUDY    64  64 100 SE6       29.95S
BRAINERD       CLOUDY    63  62  97 SE8       29.92F
STAPLES        RAIN      63  63 100 SE6       29.90F
LONG PRAIRIE   LGT RAIN  63  63 100 SE8       29.90F
LITTLE FALLS   CLOUDY    64  61  88 SE6       29.91S FOG
LITCHFIELD     CLOUDY    66  66 100 SE7       29.90S
BUFFALO        CLOUDY    67  63  85 E5        29.90F
MAPLE LAKE     CLOUDY    68  65  89 E6        29.90F
$$
MNZ037-044-045-052-053-290600-
   East Central Minnesota

CITY           SKY/WX    TMP DP  RH WIND       PRES   REMARKS
PRINCETON      CLOUDY    66  64  94 E7        29.91F
MORA           CLOUDY    63  59  88 E3        29.94F
CAMBRIDGE      CLOUDY    68  59  73 E6        29.90F
RUSH CITY      CLOUDY    65  62  90 CALM      29.91F
MOOSE LAKE     CLOUDY    63  59  88 CALM      29.92F
HINCKLEY       CLOUDY    64  63  94 E5        29.93F
CLOQUET        CLOUDY    61  57  88 CALM      29.96S
MCGREGOR       CLOUDY    63  61  94 SE5       29.94F
$$
MNZ071>073-080-081-089-090-097-098-290600-
   Southwest Minnesota

CITY           SKY/WX    TMP DP  RH WIND       PRES   REMARKS
MONTEVIDEO     CLOUDY    66  66 100 S8        29.86F
GRANITE FALLS  CLOUDY    66  65  97 E5        29.87F
CANBY          CLOUDY    67  66  97 SE9       29.85F FOG
MARSHALL       CLOUDY    66  64  94 SE12      29.83F
REDWOOD FALLS  LGT RAIN  66  65  96 SE7       29.85F
OLIVIA         CLOUDY    66  63  88 E8        29.86F
PIPESTONE      FOG       68  66  94 SE7       29.85S VSB 1/2
WINDOM         DRZL/FOG  66  64  94 E6        29.87S VSB 1/2
WORTHINGTON    CLOUDY    72  70  94 SE5       29.87S
JACKSON        CLOUDY    70  68  94 SE5       29.87S FOG
TRACY          CLOUDY    67  66  97 CALM      29.86F FOG
SLAYTON        FOG       66  66 100 CALM      29.87F VSB 1/2
$$
MNZ065>067-074>077-082>085-091>093-290600-
   South Central Minnesota

CITY           SKY/WX    TMP DP  RH WIND       PRES   REMARKS
MANKATO        CLOUDY    73  63  68 SE12      29.87F
NEW ULM        CLOUDY    66  66 100 E8        29.86F
ST JAMES       CLOUDY    66  66 100 E3        29.88S FOG
FAIRMONT       CLOUDY    66  64  94 SE7       29.86F
GLENCOE        CLOUDY    67  63  85 E7        29.88F
FARIBAULT      CLOUDY    68  63  83 E7        29.90F
OWATONNA       CLOUDY    66  64  94 SE8       29.90F FOG
WASECA         CLOUDY    64  61  88 SE7       29.91S FOG
ALBERT LEA     CLOUDY    70  68  94 SE9G16    29.90S FOG
$$
MNZ078>079-086>088-094>096-290600-
   Southeast Minnesota

CITY           SKY/WX    TMP DP  RH WIND       PRES   REMARKS
ROCHESTER      CLOUDY    66  65  96 SE9       29.94F FOG
RED WING       CLOUDY    66  64  94 SE15G21   29.90F
STANTON        CLOUDY    67  64  89 SE9G16    29.89F
DODGE CENTER   LGT RAIN  66  66 100 SE8       29.92S VSB 1
WINONA         CLOUDY    66  64  94 SE6       29.95F
AUSTIN         CLOUDY    66  66 100 S7        29.91F FOG
PRESTON        CLOUDY    65  65 100 CALM      29.95S FOG
$$
ABBREVIATIONS USED IN REMARKS
   TC - TEMPERATURES IN CELSIUS
  WCI - WIND CHILL INDEX
   HX - HEAT INDEX
  VSB - VISIBILITY
$$



USA.gov is the U.S. government's official web portal to all federal, state and local government web resources and services.